Tacoma, WA
on Sunday, December 30, 2012

Sunday
Previous Day Next Day
Daily Summary
 ActualAverage (KSEA)Record (KSEA)
Temperature
Mean Temperature °F 41°F  
Max Temperature 41°F 45°F 56°F (1958)
Min Temperature 28°F 36°F 6°F (1968)
Degree Days
Heating Degree Days 30 24  
Month to date heating degree days 733  
Since 1 July heating degree days 1916  
Cooling Degree Days 0 0  
Month to date cooling degree days 0  
Year to date cooling degree days 189  
Moisture
Dew Point 34°F   
Average Humidity 98    
Maximum Humidity 100    
Minimum Humidity 86    
Precipitation
Precipitation 0.00 in 0.16 in 1.06 in (1980)
Month to date precipitation 5.19  
Year to date precipitation 37.33  
Snow
Snow 0.00 in in 3.70 in (1968)
Month to date snowfall  
Since 1 July snowfall  
Snow Depth in   
Wind
Wind Speed 2 mph   
Max Wind Speed 5 mph   
Max Gust Speed mph   
Visibility 3 miles   
Events Fog   

Key: T is trace of precipitation, MM is missing value
Source: NWS Daily Summary
Time(PST)TemperatureDew PointHumidity Pressure Visibility Wind DirectionWind SpeedGust SpeedPrecipitationEvents Conditions
12:03 AM 37.4°F 37.4°F 100% 30.23 in 9.0 miles ESE 2.3 mph - N/A   Overcast
12:08 AM 37.4°F 37.4°F 100% 30.23 in 9.0 miles ESE 3.5 mph - N/A   Overcast
12:23 AM 37.4°F 37.4°F 100% 30.23 in 8.0 miles Calm Calm - N/A   Overcast
12:53 AM 37.4°F 37.4°F 100% 30.23 in 7.0 miles SSW 3.5 mph - N/A   Overcast
12:58 AM 37.4°F 37.4°F 100% 30.25 in 8.0 miles SSW 2.3 mph - N/A   Overcast
1:03 AM 37.4°F 37.4°F 100% 30.23 in 9.0 miles SW 2.3 mph - N/A   Overcast
1:08 AM 37.4°F 37.4°F 100% 30.23 in 8.0 miles SW 2.3 mph - N/A   Overcast
1:13 AM 37.4°F 37.4°F 100% 30.23 in 8.0 miles SW 2.3 mph - N/A   Overcast
1:33 AM 37.4°F 37.4°F 100% 30.23 in 3.0 miles SW 1.2 mph - N/A   Overcast
1:38 AM 37.4°F 37.4°F 100% 30.23 in 1.5 miles Calm Calm - N/A   Overcast
1:43 AM 35.6°F 35.6°F 100% 30.23 in 0.8 miles Calm Calm - N/A   Overcast
1:48 AM 35.6°F 35.6°F 100% 30.23 in 0.5 miles Calm Calm - N/A Fog Fog
1:58 AM 35.6°F 35.6°F 100% 30.25 in 0.5 miles SSE 1.2 mph - N/A Fog Fog
2:03 AM 35.6°F 35.6°F 100% 30.23 in 0.5 miles Calm Calm - N/A Fog Fog
2:08 AM 35.6°F 35.6°F 100% 30.23 in 0.8 miles SE 2.3 mph - N/A   Overcast
2:13 AM 37.4°F 35.6°F 93% 30.24 in 1.2 miles SE 2.3 mph - N/A   Overcast
2:18 AM 35.6°F 35.6°F 100% 30.24 in 2.0 miles ESE 2.3 mph - N/A   Overcast
2:23 AM 37.4°F 35.6°F 93% 30.24 in 3.0 miles ESE 1.2 mph - N/A   Overcast
2:38 AM 37.4°F 35.6°F 93% 30.24 in 2.0 miles Calm Calm - N/A   Overcast
2:43 AM 37.4°F 35.6°F 93% 30.24 in 1.2 miles Calm Calm - N/A   Overcast
2:48 AM 35.6°F 35.6°F 100% 30.25 in 1.5 miles SSE 1.2 mph - N/A   Overcast
2:53 AM 35.6°F 35.6°F 100% 30.25 in 3.0 miles South 2.3 mph - N/A   Overcast
2:58 AM 36.3°F 36.1°F 99% 30.26 in 4.0 miles South 3.5 mph - N/A   Overcast
3:28 AM 35.6°F 35.6°F 100% 30.25 in 2.5 miles Calm Calm - N/A   Mostly Cloudy
3:33 AM 35.6°F 35.6°F 100% 30.25 in 1.2 miles South 1.2 mph - N/A   Scattered Clouds
3:38 AM 35.6°F 35.6°F 100% 30.25 in 1.0 miles South 2.3 mph - N/A   Mist
3:43 AM 35.6°F 33.8°F 93% 30.25 in 1.5 miles SSE 2.3 mph - N/A   Partly Cloudy
3:48 AM 33.8°F 33.8°F 100% 30.26 in 1.2 miles ESE 3.5 mph - N/A   Scattered Clouds
3:53 AM 35.6°F 33.8°F 93% 30.26 in 0.5 miles East 2.3 mph - N/A Fog Fog
3:54 AM 35.6°F 33.8°F 93% 30.26 in 0.2 miles East 2.3 mph - N/A Fog Fog
3:58 AM 35.6°F 33.8°F 93% 30.28 in 0.2 miles East 2.3 mph - N/A Fog Fog
4:03 AM 35.6°F 33.8°F 93% 30.26 in 0.2 miles East 3.5 mph - N/A Fog Fog
4:08 AM 35.6°F 35.6°F 100% 30.26 in 0.2 miles East 3.5 mph - N/A Fog Fog
4:13 AM 35.6°F 35.6°F 100% 30.26 in 0.5 miles SE 3.5 mph - N/A Fog Fog
4:18 AM 35.6°F 35.6°F 100% 30.26 in 1.0 miles SE 2.3 mph - N/A   Mostly Cloudy
4:23 AM 35.6°F 35.6°F 100% 30.26 in 1.8 miles SE 2.3 mph - N/A   Overcast
4:28 AM 35.6°F 35.6°F 100% 30.26 in 2.0 miles SSE 3.5 mph - N/A   Overcast
4:33 AM 35.6°F 35.6°F 100% 30.26 in 1.5 miles East 3.5 mph - N/A   Overcast
4:38 AM 35.6°F 35.6°F 100% 30.26 in 1.8 miles ESE 4.6 mph - N/A   Overcast
4:43 AM 35.6°F 35.6°F 100% 30.26 in 3.0 miles ESE 4.6 mph - N/A   Overcast
4:51 AM 35.6°F 35.6°F 100% 30.26 in 3.0 miles West 3.5 mph - N/A   Overcast
4:58 AM 36.0°F 35.8°F 99% 30.28 in 4.0 miles Calm Calm - N/A   Overcast
5:18 AM 35.6°F 35.6°F 100% 30.26 in 3.0 miles East 1.2 mph - N/A   Overcast
5:23 AM 35.6°F 35.6°F 100% 30.26 in 2.5 miles ESE 1.2 mph - N/A   Overcast
5:28 AM 35.6°F 35.6°F 100% 30.26 in 1.2 miles Calm Calm - N/A   Overcast
5:33 AM 35.6°F 35.6°F 100% 30.26 in 0.8 miles Calm Calm - N/A   Overcast
5:43 AM 35.6°F 35.6°F 100% 30.26 in 1.0 miles Calm Calm - N/A   Overcast
5:53 AM 35.6°F 35.6°F 100% 30.27 in 0.8 miles NE 1.2 mph - N/A   Overcast
5:58 AM 35.6°F 35.6°F 100% 30.29 in 1.5 miles Calm Calm - N/A   Overcast
6:03 AM 35.6°F 35.6°F 100% 30.27 in 3.0 miles Calm Calm - N/A   Overcast
6:58 AM 36.5°F 36.1°F 99% 30.30 in 6.0 miles NNE 1.2 mph - N/A   Overcast
7:28 AM 37.4°F 35.6°F 93% 30.28 in 5.0 miles East 1.2 mph - N/A   Overcast
7:58 AM 36.3°F 36.0°F 99% 30.29 in 3.0 miles South 4.6 mph - N/A   Overcast
8:58 AM 36.9°F 36.5°F 99% 30.31 in 6.0 miles NE 2.3 mph - N/A   Overcast
9:38 AM 37.4°F 37.4°F 100% 30.31 in 9.0 miles ENE 2.3 mph - N/A   Overcast
9:58 AM 37.9°F 37.6°F 99% 30.33 in 10.0 miles East 2.3 mph - N/A   Overcast
10:58 AM 39.2°F 39.2°F 100% 30.33 in 10.0 miles West 2.3 mph - N/A   Overcast
11:08 AM 39.2°F 39.2°F 100% 30.31 in 10.0 miles West 3.5 mph - N/A   Overcast
11:17 AM 39.2°F 39.2°F 100% 30.31 in 10.0 miles NW 2.3 mph - N/A   Overcast
11:58 AM 40.1°F 36.7°F 88% 30.32 in 10.0 miles Calm Calm - N/A   Overcast
12:08 PM 41.0°F 37.4°F 87% 30.30 in 10.0 miles NNW 1.2 mph - N/A   Overcast
12:58 PM 40.8°F 38.1°F 90% 30.31 in 10.0 miles NW 3.5 mph - N/A   Overcast
1:03 PM 41.0°F 37.4°F 87% 30.29 in 10.0 miles WNW 2.3 mph - N/A   Overcast
1:18 PM 41.0°F 37.4°F 87% 30.29 in 10.0 miles Variable 2.3 mph - N/A   Overcast
1:58 PM 41.0°F 37.2°F 86% 30.31 in 10.0 miles North 2.3 mph - N/A   Overcast
2:58 PM 40.5°F 37.0°F 88% 30.31 in 10.0 miles NNE 3.5 mph - N/A   Overcast
3:58 PM 40.1°F 37.2°F 89% 30.30 in 9.0 miles North 3.5 mph - N/A   Overcast
4:58 PM 39.7°F 36.5°F 88% 30.30 in 10.0 miles North 3.5 mph - N/A   Overcast
5:33 PM 37.4°F 35.6°F 93% 30.27 in 10.0 miles North 4.6 mph - N/A   Scattered Clouds
5:58 PM 35.8°F 34.3°F 94% 30.29 in 10.0 miles Calm Calm - N/A   Partly Cloudy
6:38 PM 32.0°F 32.0°F 100% 30.26 in 1.8 miles Calm Calm - N/A   Clear
6:43 PM 32.0°F 32.0°F 100% 30.26 in 1.2 miles Calm Calm - N/A   Clear
6:48 PM 32.0°F 32.0°F 100% 30.25 in 0.5 miles SE 2.3 mph - N/A Fog Fog
6:53 PM 32.0°F 32.0°F 100% 30.25 in 0.2 miles ESE 2.3 mph - N/A Fog Light Freezing Fog
6:58 PM 30.6°F 30.4°F 99% 30.27 in 0.2 miles ESE 1.2 mph - N/A Fog Light Freezing Fog
7:03 PM 32.0°F 32.0°F 100% 30.26 in 0.2 miles Calm Calm - N/A Fog Light Freezing Fog
7:08 PM 32.0°F 32.0°F 100% 30.26 in 0.2 miles WSW 2.3 mph - N/A Fog Light Freezing Fog
7:23 PM 32.0°F 30.2°F 93% 30.26 in 0.2 miles South 2.3 mph - N/A Fog Light Freezing Fog
7:33 PM 28.4°F 28.4°F 100% 30.26 in 0.5 miles SSE 2.3 mph - N/A Fog Light Freezing Fog
7:43 PM 28.4°F 28.4°F 100% 30.26 in 0.5 miles South 3.5 mph - N/A Fog Light Freezing Fog
7:48 PM 28.4°F 28.4°F 100% 30.27 in 0.2 miles South 3.5 mph - N/A Fog Light Freezing Fog
7:53 PM 28.4°F 28.4°F 100% 30.27 in 0.5 miles South 2.3 mph - N/A Fog Light Freezing Fog
7:58 PM 28.4°F 28.4°F 100% 30.30 in 0.8 miles South 2.3 mph - N/A   Clear
8:08 PM 28.4°F 28.4°F 100% 30.26 in 0.5 miles SSE 3.5 mph - N/A Fog Light Freezing Fog
8:23 PM 30.2°F 28.4°F 93% 30.27 in 0.2 miles Calm Calm - N/A Fog Light Freezing Fog
8:28 PM 28.4°F 28.4°F 100% 30.27 in 0.2 miles Calm Calm - N/A Fog Light Freezing Fog
8:33 PM 28.4°F 28.4°F 100% 30.27 in 0.2 miles Calm Calm - N/A Fog Light Freezing Fog
8:38 PM 30.2°F 28.4°F 93% 30.27 in 0.2 miles Calm Calm - N/A Fog Light Freezing Fog
8:48 PM 28.4°F 26.6°F 93% 30.27 in 0.2 miles ESE 1.2 mph - N/A Fog Light Freezing Fog
8:53 PM 28.4°F 28.4°F 100% 30.27 in 0.2 miles ESE 2.3 mph - N/A Fog Light Freezing Fog
8:58 PM 28.2°F 28.0°F 99% 30.30 in 0.2 miles ESE 3.5 mph - N/A Fog Light Freezing Fog
9:18 PM 28.4°F 28.4°F 100% 30.28 in 0.5 miles WSW 2.3 mph - N/A Fog Light Freezing Fog
9:23 PM 30.2°F 28.4°F 93% 30.28 in 0.2 miles Calm Calm - N/A Fog Light Freezing Fog
9:28 PM 30.2°F 28.4°F 93% 30.28 in 0.2 miles South 2.3 mph - N/A Fog Light Freezing Fog
9:38 PM 28.4°F 28.4°F 100% 30.28 in 0.2 miles SE 2.3 mph - N/A Fog Light Freezing Fog
9:43 PM 28.4°F 28.4°F 100% 30.28 in 0.2 miles Calm Calm - N/A Fog Light Freezing Fog
9:48 PM 30.2°F 30.2°F 100% 30.28 in 0.5 miles Calm Calm - N/A Fog Light Freezing Fog
9:53 PM 30.2°F 30.2°F 100% 30.28 in 0.5 miles Calm Calm - N/A Fog Light Freezing Fog
9:58 PM 30.2°F 30.2°F 100% 30.31 in 0.5 miles Calm Calm - N/A Fog Light Freezing Fog
10:03 PM 30.2°F 30.2°F 100% 30.29 in 0.2 miles Calm Calm - N/A Fog Light Freezing Fog
10:08 PM 30.2°F 30.2°F 100% 30.29 in 0.2 miles Calm Calm - N/A Fog Light Freezing Fog
10:24 PM 30.2°F 30.2°F 100% 30.29 in 0.2 miles Calm Calm - N/A Fog Light Freezing Fog
10:49 PM 30.2°F 28.4°F 93% 30.30 in 0.2 miles Calm Calm - N/A Fog Light Freezing Fog
10:54 PM 30.2°F 28.4°F 93% 30.29 in 0.2 miles SSE 2.3 mph - N/A Fog Light Freezing Fog
10:58 PM 30.2°F 28.4°F 93% 30.31 in 0.2 miles SSE 1.2 mph - N/A Fog Light Freezing Fog
11:03 PM 28.4°F 28.4°F 100% 30.29 in 0.2 miles WSW 1.2 mph - N/A Fog Light Freezing Fog
11:08 PM 28.4°F 28.4°F 100% 30.29 in 0.2 miles Calm Calm - N/A Fog Light Freezing Fog
11:13 PM 28.4°F 28.4°F 100% 30.29 in 0.2 miles Calm Calm - N/A Fog Light Freezing Fog
11:44 PM 28.4°F 28.4°F 100% 30.29 in 0.2 miles SSW 2.3 mph - N/A Fog Light Freezing Drizzle
11:49 PM 28.4°F 28.4°F 100% 30.29 in 0.5 miles ENE 1.2 mph - N/A Fog Light Freezing Drizzle
11:54 PM 28.4°F 28.4°F 100% 30.29 in 0.5 miles Calm Calm - N/A Fog Light Freezing Drizzle
11:58 PM 28.4°F 28.4°F 100% 30.31 in 0.8 miles Calm Calm - 0.00 in   Light Freezing Drizzle
Moon Phase
Dec. 30 Jan. 04 Jan. 11 Jan. 18 Jan. 26
Sunrise:07:56 AM (PST) Moon Rise:07:17 PM (PST)12/30
Sunset:04:29 PM (PST) Moon Set:08:58 AM (PST)12/30

Copyright © 2014 The Weather Underground, Inc.